This demonstration page uses our WeatherBlox Daily Observations layout. Learn more.

Left ArrowRight Arrow

39.92423, -83.80882

Hourly Observations for May 19, 2018

Temp ( °F °C ) Dew Point ( °F °C ) Humidity (%) Winds ( mph kmh ) Pressure ( in mb ) Visibility ( mi km ) Precip ( " mm )
12:56 am 00:56 Mostly Cloudy 66 18.9 63 17.2 90 90 ESE 14 22 29.91 1013 10 16.0934 0 0
1:37 am 01:37 Mostly Cloudy 66 19 63 17 88 88 ESE 13 20 29.88 1012 10 16.0934 0 0
1:56 am 01:56 Cloudy 66 18.9 63 17.2 90 90 ESE 10 17 29.9 1013 10 16.0934 0 0
3:05 am 03:05 Partly Cloudy 66 19 64 18 94 94 SE 9 15 29.88 1012 10 16.0934 0 0.0254
3:48 am 03:48 Mostly Cloudy 66 19 64 18 94 94 ESE 8 13 29.88 1012 10 16.0934 0 0.0254
3:56 am 03:56 Cloudy 66 18.9 64 17.8 93 93 ESE 9 15 29.9 1012 10 16.0934 0 0.0254
4:27 am 04:27 Cloudy 64 18 64 18 100 100 ESE 8 13 29.88 1012 10 16.0934 0 0
4:56 am 04:56 Partly Cloudy 64 17.8 63 17.2 96 96 ESE 7 11 29.9 1013 10 16.0934 0 0
5:56 am 05:56 Mostly Cloudy 64 17.8 63 17.2 96 96 ESE 5 7 29.91 1013 10 16.0934 0 0
6:56 am 06:56 Mostly Cloudy 64 17.8 63 17.2 96 96 SE 5 7 29.92 1013 10 16.0934 0 0
7:40 am 07:40 Partly Cloudy 66 19 64 18 94 94 SE 9 15 29.91 1013 10 16.0934 0 0
7:47 am 07:47 Mostly Cloudy 66 19 64 18 94 94 SSE 9 15 29.91 1013 10 16.0934 0 0
7:56 am 07:56 Mostly Cloudy 68 20 66 18.9 93 93 SSE 9 15 29.92 1013 10 16.0934 0 0
8:37 am 08:37 Cloudy 68 20 66 19 94 94 S 9 15 29.91 1013 10 16.0934 0 0
8:47 am 08:47 Cloudy 68 20 66 19 94 94 S 8 13 29.91 1013 10 16.0934 0 0
8:56 am 08:56 Cloudy 69 20.6 66 18.9 90 90 S 8 13 29.93 1014 10 16.0934 0 0
9:21 am 09:21 Cloudy with Light Rain 68 20 66 19 94 94 undefined N/A 29.91 1013 10 16.0934 0 0.0254
9:46 am 09:46 Cloudy 70 21 66 19 88 88 undefined N/A 29.91 1013 10 16.0934 0.01 0.254
9:56 am 09:56 Cloudy 69 20.6 67 19.4 93 93 undefined N/A 29.93 1014 10 16.0934 0.01 0.254
10:56 am 10:56 Cloudy with Rain 68 20 66 18.9 93 93 undefined N/A 29.93 1013 7 11.26538 0 0
11:05 am 11:05 Cloudy with Rain 68 20 66 19 94 94 SSW 7 11 29.91 1013 5 8.0467 0 0.0254
11:31 am 11:31 Cloudy with Light Rain 68 20 66 19 94 94 SSW 7 11 29.91 1013 10 16.0934 0 0
11:56 am 11:56 Cloudy 69 20.6 67 19.4 93 93 SSW 8 13 29.93 1014 10 16.0934 0 0
12:56 pm 12:56 Cloudy 72 22.2 68 20 87 87 SW 12 19 29.91 1013 10 16.0934 0.04 1.016
1:15 pm 13:15 Cloudy 72 22 66 19 83 83 SW 12 19 29.88 1012 10 16.0934 0.01 0.254
1:24 pm 13:24 Cloudy 73 23 68 20 83 83 SSW 13 20 29.88 1012 10 16.0934 0.01 0.254
1:43 pm 13:43 Cloudy with Light Rain 72 22 68 20 88 88 SW 12 19 29.88 1012 10 16.0934 0.02 0.508
1:56 pm 13:56 Mostly Cloudy 74 23.3 68 20 82 82 SSW 10 17 29.9 1012 10 16.0934 0.03 0.762
2:56 pm 14:56 Mostly Cloudy 75 23.9 67 19.4 76 76 SW 15 24 29.89 1012 10 16.0934 0.02 0.508
3:08 pm 15:08 Mostly Cloudy 75 24 66 19 74 74 SSW 13 20 29.88 1012 10 16.0934 0 0
3:49 pm 15:49 Cloudy with Light Rain 70 21 64 18 83 83 SW 17 28 29.88 1012 10 16.0934 0 0.0254
3:56 pm 15:56 Mostly Cloudy with Light Rain 70 21.1 66 18.9 87 87 SW 14 22 29.89 1012 10 16.0934 0 0.0254
4:56 pm 16:56 Mostly Cloudy 74 23.3 67 19.4 79 79 SSW 12 19 29.88 1012 10 16.0934 0 0.0254
5:15 pm 17:15 Cloudy with Nearby Thunderstorms 73 23 68 20 83 83 undefined N/A 29.85 1011 10 16.0934 0 0
5:28 pm 17:28 Cloudy with Nearby Thunderstorms 73 23 68 20 83 83 undefined N/A 29.85 1011 10 16.0934 0 0
5:43 pm 17:43 Cloudy with Rain 70 21 68 20 94 94 undefined N/A 29.85 1011 4 6.43736 0.01 0.254
5:51 pm 17:51 Cloudy with Light Rain 70 21 66 19 88 88 W 14 22 29.88 1012 9 14.48406 0.02 0.508
5:56 pm 17:56 Cloudy with Light Rain 69 20.6 67 19.4 93 93 W 13 20 29.89 1012 10 16.0934 0.02 0.508
6:14 pm 18:14 Mostly Cloudy with Nearby Thunderstorms 70 21 66 19 88 88 WSW 8 13 29.88 1012 10 16.0934 0.03 0.762
6:35 pm 18:35 Mostly Sunny 72 22 66 19 83 83 WSW 8 13 29.88 1012 10 16.0934 0.06 1.524
6:56 pm 18:56 Sunny 73 22.8 67 19.4 81 81 WSW 10 17 29.89 1012 10 16.0934 0.08 2.032
7:56 pm 19:56 Mostly Sunny 72 22.2 66 18.9 82 82 WSW 9 15 29.9 1013 10 16.0934 0.01 0.254
8:08 pm 20:08 Mostly Cloudy 72 22 66 19 83 83 SW 7 11 29.88 1012 10 16.0934 0 0
8:31 pm 20:31 Mostly Cloudy 70 21 66 19 88 88 SSW 9 15 29.91 1013 10 16.0934 0 0
8:56 pm 20:56 Partly Cloudy 69 20.6 66 18.9 90 90 SSW 6 9 29.93 1014 10 16.0934 0 0
9:56 pm 21:56 Clear 68 20 66 18.9 93 93 SW 8 13 29.95 1014 10 16.0934 0 0
10:56 pm 22:56 Clear 68 20 66 18.9 93 93 WSW 9 15 29.98 1015 10 16.0934 0 0
11:56 pm 23:56 Clear 68 20 66 18.9 93 93 SW 8 13 29.98 1015 10 16.0934 0 0

Powered by AerisWeather